Time,TemperatureF,DewpointF,PressureIn,WindDirection,WindDirectionDegrees,WindSpeedMPH,WindSpeedGustMPH,Humidity,HourlyPrecipIn,Conditions,Clouds,dailyrainin,SoftwareType,DateUTC
2013-03-15 00:03:00,16.0,3.0,29.63,WSW,247,6.0,16.0,56,0.00,,,0.00,,2013-03-15 04:03:00,
2013-03-15 00:12:00,16.0,3.0,29.63,WSW,247,6.0,16.0,56,0.00,,,0.00,,2013-03-15 04:12:00,
2013-03-15 00:23:00,16.0,3.0,29.63,West,278,2.0,8.0,55,0.00,,,0.00,,2013-03-15 04:23:00,
2013-03-15 00:32:00,16.0,3.0,29.63,West,278,2.0,8.0,55,0.00,,,0.00,,2013-03-15 04:32:00,
2013-03-15 00:43:00,16.0,3.0,29.63,West,278,2.0,8.0,55,0.00,,,0.00,,2013-03-15 04:43:00,
2013-03-15 00:53:00,15.0,2.0,29.64,West,261,6.0,11.0,56,0.00,,,0.00,,2013-03-15 04:53:00,
2013-03-15 01:02:00,15.0,3.0,29.64,West,268,2.0,8.0,57,0.00,,,0.00,,2013-03-15 05:02:00,
2013-03-15 01:12:00,15.0,3.0,29.64,West,268,2.0,8.0,57,0.00,,,0.00,,2013-03-15 05:12:00,
2013-03-15 01:22:00,15.0,3.0,29.64,West,270,2.0,10.0,58,0.00,,,0.00,,2013-03-15 05:22:00,
2013-03-15 01:32:00,15.0,3.0,29.64,SSW,195,5.0,7.0,58,0.00,,,0.00,,2013-03-15 05:32:00,
2013-03-15 01:42:00,15.0,3.0,29.64,SSW,195,5.0,7.0,58,0.00,,,0.00,,2013-03-15 05:42:00,
2013-03-15 01:52:00,15.0,3.0,29.64,SSW,195,5.0,7.0,58,0.00,,,0.00,,2013-03-15 05:52:00,
2013-03-15 02:02:00,15.0,2.0,29.65,WSW,240,1.0,11.0,56,0.00,,,0.00,,2013-03-15 06:02:00,
2013-03-15 02:12:00,15.0,2.0,29.65,WSW,240,1.0,11.0,56,0.00,,,0.00,,2013-03-15 06:12:00,
2013-03-15 02:22:00,15.0,2.0,29.65,WSW,240,1.0,11.0,56,0.00,,,0.00,,2013-03-15 06:22:00,
2013-03-15 02:32:00,15.0,2.0,29.65,WSW,240,1.0,11.0,56,0.00,,,0.00,,2013-03-15 06:32:00,
2013-03-15 02:42:00,15.0,2.0,29.65,WSW,240,1.0,11.0,56,0.00,,,0.00,,2013-03-15 06:42:00,
2013-03-15 02:53:00,15.0,2.0,29.65,SW,226,2.0,12.0,55,0.00,,,0.00,,2013-03-15 06:53:00,
2013-03-15 03:02:00,15.0,3.0,29.65,WNW,294,2.0,8.0,58,0.00,,,0.00,,2013-03-15 07:02:00,
2013-03-15 03:13:00,15.0,3.0,29.65,WNW,294,2.0,8.0,58,0.00,,,0.00,,2013-03-15 07:13:00,
2013-03-15 03:22:00,15.0,3.0,29.65,WNW,294,2.0,8.0,58,0.00,,,0.00,,2013-03-15 07:22:00,
2013-03-15 03:42:00,14.0,0.0,29.64,WSW,254,14.0,14.0,53,0.00,,,0.00,,2013-03-15 07:42:00,
2013-03-15 03:52:00,14.0,0.0,29.64,WSW,254,14.0,14.0,53,0.00,,,0.00,,2013-03-15 07:52:00,
2013-03-15 04:02:00,14.0,0.0,29.65,West,277,1.0,12.0,54,0.00,,,0.00,,2013-03-15 08:02:00,
2013-03-15 04:12:00,14.0,0.0,29.65,West,277,1.0,12.0,54,0.00,,,0.00,,2013-03-15 08:12:00,
2013-03-15 04:23:00,14.0,0.0,29.65,West,277,1.0,12.0,54,0.00,,,0.00,,2013-03-15 08:23:00,
2013-03-15 04:33:00,14.0,0.0,29.65,West,277,1.0,12.0,54,0.00,,,0.00,,2013-03-15 08:33:00,
2013-03-15 05:02:00,14.0,2.0,29.65,WSW,246,10.0,10.0,57,0.00,,,0.00,,2013-03-15 09:02:00,
2013-03-15 05:12:00,14.0,2.0,29.65,WSW,246,10.0,10.0,57,0.00,,,0.00,,2013-03-15 09:12:00,
2013-03-15 05:22:00,14.0,2.0,29.65,WSW,246,10.0,10.0,57,0.00,,,0.00,,2013-03-15 09:22:00,
2013-03-15 05:33:00,14.0,2.0,29.65,WSW,246,10.0,10.0,57,0.00,,,0.00,,2013-03-15 09:33:00,
2013-03-15 05:43:00,14.0,2.0,29.65,WSW,246,10.0,10.0,57,0.00,,,0.00,,2013-03-15 09:43:00,
2013-03-15 06:03:00,14.0,1.0,29.66,WSW,243,2.0,5.0,56,0.00,,,0.00,,2013-03-15 10:03:00,
2013-03-15 06:13:00,14.0,1.0,29.66,WSW,243,2.0,5.0,56,0.00,,,0.00,,2013-03-15 10:13:00,
2013-03-15 06:23:00,14.0,1.0,29.66,NE,52,1.0,11.0,55,0.00,,,0.00,,2013-03-15 10:23:00,
2013-03-15 06:33:00,13.0,0.0,29.66,NW,323,0.0,7.0,55,0.00,,,0.00,,2013-03-15 10:33:00,
2013-03-15 06:43:00,13.0,0.0,29.66,NW,323,0.0,7.0,55,0.00,,,0.00,,2013-03-15 10:43:00,
2013-03-15 06:52:00,13.0,0.0,29.66,WNW,299,2.0,9.0,55,0.00,,,0.00,,2013-03-15 10:52:00,
2013-03-15 07:03:00,13.0,1.0,29.67,SSW,210,0.0,6.0,57,0.00,,,0.00,,2013-03-15 11:03:00,
2013-03-15 07:12:00,13.0,1.0,29.67,SSW,210,0.0,6.0,57,0.00,,,0.00,,2013-03-15 11:12:00,
2013-03-15 07:23:00,13.0,2.0,29.67,ESE,109,0.0,0.0,60,0.00,,,0.00,,2013-03-15 11:23:00,
2013-03-15 07:32:00,13.0,2.0,29.67,South,178,0.0,0.0,60,0.00,,,0.00,,2013-03-15 11:32:00,
2013-03-15 07:42:00,13.0,2.0,29.67,South,178,0.0,0.0,60,0.00,,,0.00,,2013-03-15 11:42:00,
2013-03-15 07:52:00,13.0,1.0,29.67,NE,34,0.0,6.0,59,0.00,,,0.00,,2013-03-15 11:52:00,
2013-03-15 08:02:00,13.0,1.0,29.67,East,85,0.0,5.0,58,0.00,,,0.00,,2013-03-15 12:02:00,
2013-03-15 08:12:00,13.0,1.0,29.67,East,85,0.0,5.0,58,0.00,,,0.00,,2013-03-15 12:12:00,
2013-03-15 08:23:00,13.0,1.0,29.67,East,85,0.0,5.0,58,0.00,,,0.00,,2013-03-15 12:23:00,
2013-03-15 08:30:00,15.0,3.0,29.67,WSW,257,0.0,3.0,57,0.00,,,0.00,,2013-03-15 12:30:00,
2013-03-15 08:32:00,14.0,2.0,29.68,West,270,0.0,16.0,59,0.00,,,0.00,,2013-03-15 12:32:00,
2013-03-15 08:42:00,14.0,2.0,29.68,West,270,0.0,16.0,59,0.00,,,0.00,,2013-03-15 12:42:00,
2013-03-15 08:52:00,15.0,3.0,29.67,WSW,257,0.0,3.0,57,0.00,,,0.00,,2013-03-15 12:52:00,
2013-03-15 09:02:00,15.0,3.0,29.67,WSW,257,0.0,3.0,57,0.00,,,0.00,,2013-03-15 13:02:00,
2013-03-15 09:12:00,15.0,3.0,29.67,WSW,257,0.0,3.0,57,0.00,,,0.00,,2013-03-15 13:12:00,
2013-03-15 09:22:00,15.0,3.0,29.67,WSW,257,0.0,3.0,57,0.00,,,0.00,,2013-03-15 13:22:00,
2013-03-15 09:53:00,21.0,5.0,29.66,SW,230,0.0,10.0,49,0.00,,,0.00,,2013-03-15 13:53:00,
2013-03-15 10:02:00,20.0,4.0,29.66,NNW,337,0.0,8.0,50,0.00,,,0.00,,2013-03-15 14:02:00,
2013-03-15 10:12:00,20.0,4.0,29.66,NNW,337,0.0,8.0,50,0.00,,,0.00,,2013-03-15 14:12:00,
2013-03-15 10:22:00,20.0,4.0,29.66,NNW,337,0.0,8.0,50,0.00,,,0.00,,2013-03-15 14:22:00,
2013-03-15 10:32:00,22.0,5.0,29.66,West,267,0.0,10.0,47,0.00,,,0.00,,2013-03-15 14:32:00,
2013-03-15 10:42:00,22.0,5.0,29.66,West,267,0.0,10.0,47,0.00,,,0.00,,2013-03-15 14:42:00,
2013-03-15 10:53:00,22.0,5.0,29.66,West,267,0.0,10.0,47,0.00,,,0.00,,2013-03-15 14:53:00,
2013-03-15 11:02:00,22.0,6.0,29.65,WSW,247,5.0,11.0,49,0.00,,,0.00,,2013-03-15 15:02:00,
2013-03-15 11:13:00,22.0,6.0,29.65,WSW,247,5.0,11.0,49,0.00,,,0.00,,2013-03-15 15:13:00,
2013-03-15 11:22:00,23.0,5.0,29.63,WNW,287,0.0,12.0,46,0.00,,,0.00,,2013-03-15 15:22:00,
2013-03-15 11:23:00,22.0,6.0,29.65,WSW,247,5.0,11.0,49,0.00,,,0.00,,2013-03-15 15:23:00,
2013-03-15 11:33:00,22.0,6.0,29.65,WSW,247,5.0,11.0,49,0.00,,,0.00,,2013-03-15 15:33:00,
2013-03-15 11:42:00,23.0,5.0,29.63,WNW,287,0.0,12.0,46,0.00,,,0.00,,2013-03-15 15:42:00,
2013-03-15 11:53:00,23.0,5.0,29.63,WNW,287,0.0,12.0,46,0.00,,,0.00,,2013-03-15 15:53:00,
2013-03-15 12:03:00,23.0,5.0,29.63,WNW,287,0.0,12.0,46,0.00,,,0.00,,2013-03-15 16:03:00,
2013-03-15 12:13:00,23.0,5.0,29.63,WNW,287,0.0,12.0,46,0.00,,,0.00,,2013-03-15 16:13:00,
2013-03-15 14:30:00,33.0,6.0,29.51,WNW,284,0.0,3.0,31,0.00,,,0.00,,2013-03-15 18:30:00,
2013-03-15 14:53:00,33.0,6.0,29.51,WNW,284,0.0,3.0,31,0.00,,,0.00,,2013-03-15 18:53:00,
2013-03-15 15:02:00,33.0,6.0,29.51,WNW,284,0.0,3.0,31,0.00,,,0.00,,2013-03-15 19:02:00,
2013-03-15 15:12:00,33.0,6.0,29.51,WNW,284,0.0,3.0,31,0.00,,,0.00,,2013-03-15 19:12:00,
2013-03-15 15:22:00,33.0,6.0,29.51,WNW,284,0.0,3.0,31,0.00,,,0.00,,2013-03-15 19:22:00,
2013-03-15 16:21:00,33.0,10.0,29.47,WNW,282,0.0,3.0,38,0.00,,,0.00,,2013-03-15 20:21:00,
2013-03-15 16:32:00,33.0,11.0,29.47,WSW,239,1.0,5.0,40,0.00,,,0.00,,2013-03-15 20:32:00,
2013-03-15 16:42:00,33.0,11.0,29.47,WSW,239,1.0,5.0,40,0.00,,,0.00,,2013-03-15 20:42:00,
2013-03-15 16:52:00,33.0,10.0,29.47,WNW,282,0.0,3.0,38,0.00,,,0.00,,2013-03-15 20:52:00,
2013-03-15 17:02:00,33.0,10.0,29.47,WNW,282,0.0,3.0,38,0.00,,,0.00,,2013-03-15 21:02:00,
2013-03-15 17:12:00,33.0,10.0,29.47,WNW,282,0.0,3.0,38,0.00,,,0.00,,2013-03-15 21:12:00,
2013-03-15 17:33:00,32.0,15.0,29.47,WNW,288,0.0,0.0,49,0.00,,,0.00,,2013-03-15 21:33:00,
2013-03-15 17:43:00,32.0,15.0,29.47,WNW,288,0.0,0.0,49,0.00,,,0.00,,2013-03-15 21:43:00,
2013-03-15 17:53:00,32.0,17.0,29.46,WNW,287,0.0,0.0,54,0.00,,,0.00,,2013-03-15 21:53:00,
2013-03-15 18:04:00,32.0,17.0,29.46,WNW,287,0.0,0.0,53,0.00,,,0.00,,2013-03-15 22:04:00,
2013-03-15 18:14:00,32.0,17.0,29.46,WNW,287,0.0,0.0,53,0.00,,,0.00,,2013-03-15 22:14:00,
2013-03-15 18:22:00,32.0,17.0,29.46,WNW,287,0.0,0.0,53,0.00,,,0.00,,2013-03-15 22:22:00,
2013-03-15 18:32:00,31.0,15.0,29.46,WNW,287,0.0,0.0,52,0.00,,,0.00,,2013-03-15 22:32:00,
2013-03-15 18:42:00,31.0,15.0,29.46,WNW,287,0.0,0.0,52,0.00,,,0.00,,2013-03-15 22:42:00,
2013-03-15 18:53:00,31.0,15.0,29.47,West,271,0.0,0.0,51,0.00,,,0.00,,2013-03-15 22:53:00,
2013-03-15 19:03:00,31.0,16.0,29.47,WSW,246,0.0,0.0,54,5.86,,,0.00,,2013-03-15 23:03:00,
2013-03-15 19:12:00,31.0,16.0,29.47,WSW,246,0.0,0.0,54,5.86,,,0.00,,2013-03-15 23:12:00,
2013-03-15 19:22:00,31.0,18.0,29.47,WSW,250,4.0,7.0,58,0.00,,,0.00,,2013-03-15 23:22:00,
2013-03-15 19:32:00,31.0,19.0,29.47,SW,219,2.0,7.0,60,0.00,,,0.00,,2013-03-15 23:32:00,
2013-03-15 19:42:00,31.0,19.0,29.47,SW,219,2.0,7.0,60,0.00,,,0.00,,2013-03-15 23:42:00,
2013-03-15 19:53:00,31.0,18.0,29.48,SSW,203,0.0,4.0,59,5.86,,,0.00,,2013-03-15 23:53:00,
2013-03-15 20:03:00,30.0,19.0,29.48,SSW,213,0.0,0.0,62,0.00,,,0.00,,2013-03-16 00:03:00,
2013-03-15 20:12:00,30.0,19.0,29.48,SSW,213,0.0,0.0,62,0.00,,,0.00,,2013-03-16 00:12:00,
2013-03-15 20:22:00,30.0,19.0,29.48,WSW,239,0.0,3.0,63,5.86,,,0.00,,2013-03-16 00:22:00,
2013-03-15 20:32:00,30.0,19.0,29.48,SW,234,0.0,0.0,64,0.00,,,0.00,,2013-03-16 00:32:00,
2013-03-15 20:42:00,30.0,19.0,29.48,SW,234,0.0,0.0,64,0.00,,,0.00,,2013-03-16 00:42:00,
2013-03-15 20:52:00,30.0,19.0,29.48,SW,234,0.0,0.0,64,0.00,,,0.00,,2013-03-16 00:52:00,
2013-03-15 21:02:00,29.0,20.0,29.48,WSW,244,0.0,0.0,68,0.00,,,0.00,,2013-03-16 01:02:00,
2013-03-15 21:12:00,29.0,20.0,29.48,WSW,244,0.0,0.0,68,0.00,,,0.00,,2013-03-16 01:12:00,
2013-03-15 21:22:00,28.0,19.0,29.48,WSW,246,0.0,1.0,69,0.00,,,0.00,,2013-03-16 01:22:00,
2013-03-15 21:32:00,28.0,20.0,29.49,WSW,237,1.0,2.0,70,0.00,,,0.00,,2013-03-16 01:32:00,
2013-03-15 21:42:00,28.0,20.0,29.49,WSW,237,1.0,2.0,70,0.00,,,0.00,,2013-03-16 01:42:00,
2013-03-15 21:52:00,28.0,20.0,29.49,WSW,237,1.0,2.0,70,0.00,,,0.00,,2013-03-16 01:52:00,
2013-03-15 22:02:00,27.0,20.0,29.48,WSW,237,0.0,0.0,73,0.00,,,0.00,,2013-03-16 02:02:00,
2013-03-15 22:13:00,27.0,20.0,29.48,WSW,237,0.0,0.0,73,0.00,,,0.00,,2013-03-16 02:13:00,
2013-03-15 22:23:00,27.0,20.0,29.49,WSW,237,0.0,0.0,75,0.00,,,0.00,,2013-03-16 02:23:00,
2013-03-15 22:33:00,27.0,20.0,29.49,WSW,237,0.0,0.0,76,0.00,,,0.00,,2013-03-16 02:33:00,
2013-03-15 22:43:00,27.0,20.0,29.49,WSW,237,0.0,0.0,76,0.00,,,0.00,,2013-03-16 02:43:00,
2013-03-15 22:52:00,27.0,21.0,29.49,WSW,237,0.0,0.0,77,0.00,,,0.00,,2013-03-16 02:52:00,
2013-03-15 23:02:00,27.0,21.0,29.49,WSW,240,0.0,3.0,77,0.00,,,0.00,,2013-03-16 03:02:00,
2013-03-15 23:12:00,27.0,21.0,29.49,WSW,240,0.0,3.0,77,0.00,,,0.00,,2013-03-16 03:12:00,
2013-03-15 23:22:00,27.0,20.0,29.49,WSW,248,2.0,4.0,74,0.00,,,0.00,,2013-03-16 03:22:00,
2013-03-15 23:32:00,28.0,20.0,29.49,West,268,2.0,4.0,73,0.00,,,0.00,,2013-03-16 03:32:00,
2013-03-15 23:43:00,28.0,20.0,29.49,West,268,2.0,4.0,73,0.00,,,0.00,,2013-03-16 03:43:00,
2013-03-15 23:53:00,27.0,21.0,29.49,West,268,0.0,4.0,77,0.00,,,0.00,,2013-03-16 03:53:00,